MST,Max TemperatureF,Mean TemperatureF,Min TemperatureF,Max Dew PointF,MeanDew PointF,Min DewpointF,Max Humidity, Mean Humidity, Min Humidity, Max Sea Level PressureIn, Mean Sea Level PressureIn, Min Sea Level PressureIn, Max VisibilityMiles, Mean VisibilityMiles, Min VisibilityMiles, Max Wind SpeedMPH, Mean Wind SpeedMPH, Max Gust SpeedMPH,PrecipitationIn, CloudCover, Events, WindDirDegrees
2012-11-1,42,38,33,36,34,32,100,85,76,30.05,29.91,29.84,10,8,1,17,12,21,0.00,8,,105
2012-11-2,42,38,35,39,34,28,93,87,75,30.13,30.00,29.87,10,10,4,20,7,24,0.05,8,,310
2012-11-3,35,32,30,34,30,28,93,83,75,30.18,30.14,30.06,10,9,1,9,5,,0.00,8,,48
2012-11-4,53,42,32,41,34,27,93,83,54,30.24,30.10,29.99,10,9,0,25,7,31,0.00,4,,345
2012-11-5,66,50,33,45,34,28,100,75,40,30.21,30.01,29.82,10,7,0,32,11,45,0.00,4,,242
2012-11-6,53,42,30,30,26,21,80,56,33,30.19,30.11,29.97,10,10,10,16,11,23,0.00,2,,314
2012-11-7,64,48,32,37,32,23,81,59,37,29.95,29.77,29.65,10,10,10,24,9,32,0.02,1,,224
2012-11-8,42,36,30,36,29,27,93,79,70,30.09,30.01,29.93,10,10,6,24,12,31,0.00,7,,25
2012-11-9,30,26,19,27,24,18,93,87,80,29.96,29.85,29.77,10,8,1,24,19,31,0.00,8,,79
2012-11-10,19,12,5,18,8,-2,93,79,72,29.94,29.85,29.77,10,8,0,18,14,31,0.00,4,,329
2012-11-11,14,6,-2,9,3,-9,85,77,61,30.07,29.97,29.89,10,9,3,23,15,30,0.00,1,,285
2012-11-12,24,11,-2,19,8,-11,100,80,60,30.11,30.08,30.06,10,10,10,13,6,,0.00,2,,191
2012-11-13,37,29,21,28,23,16,93,81,70,30.13,30.10,30.07,10,10,10,12,7,,0.00,1,,194
2012-11-14,37,26,15,28,23,12,93,81,70,30.21,30.06,30.00,10,10,10,17,8,24,0.00,0,,193
2012-11-15,35,24,12,28,21,7,100,83,70,30.32,30.23,30.09,10,10,10,13,7,,0.00,0,,202
2012-11-16,35,30,24,28,25,18,93,81,70,30.08,29.98,29.93,10,10,10,18,8,,0.00,0,,205
2012-11-17,42,33,24,32,28,19,100,80,61,30.01,29.95,29.86,10,10,10,12,4,,0.00,1,,210
2012-11-18,44,34,24,36,28,19,93,74,61,30.01,29.82,29.73,10,10,10,15,3,,0.00,2,,253
2012-11-19,46,34,21,34,27,18,93,71,53,30.08,30.01,29.92,10,10,10,17,7,,0.00,1,,194
2012-11-20,48,40,33,36,31,27,81,70,58,29.92,29.86,29.79,10,10,10,16,9,,0.00,0,,198
2012-11-21,57,45,33,37,34,28,93,75,48,29.79,29.70,29.57,10,10,10,17,8,25,0.00,2,,226
2012-11-22,39,24,10,37,16,5,93,76,59,30.51,30.20,29.79,10,10,3,29,17,36,0.00,5,,308
2012-11-23,32,21,10,23,14,1,92,75,59,30.50,30.28,29.95,10,10,10,9,4,,0.00,3,,123
2012-11-24,44,34,24,37,27,19,93,79,65,30.00,29.90,29.83,10,10,10,18,9,25,0.00,3,,266
2012-11-25,28,17,6,23,15,0,93,82,72,30.28,30.09,29.98,10,10,9,15,7,,0.00,3,,355
2012-11-26,35,20,6,27,17,1,93,82,65,30.29,30.20,30.08,10,10,7,18,8,22,0.00,2,,224
2012-11-27,33,26,19,25,20,14,93,84,64,30.15,30.11,30.06,10,10,10,9,3,,0.00,0,,198
2012-11-28,42,30,19,27,21,16,86,77,49,30.11,29.99,29.92,10,10,10,13,7,,0.00,0,,165
2012-11-29,30,24,17,23,19,12,93,84,69,29.93,29.89,29.84,10,9,7,15,8,,0.00,1,,49
2012-11-30,41,30,19,34,24,12,100,83,70,29.90,29.71,29.60,10,10,8,9,3,,0.00,0,,190